Weather History for Lake Charles Regional, LA

Change the Weather History Date:

Friday, August 30, 2013

  Actual Average Record
Temperature  
Mean Temperature 83 °F 82 °F  
Max Temperature 92 °F 91 °F 105 °F (2000)
Min Temperature 73 °F 73 °F 61 °F (1986)
Degree Days  
Heating Degree Days 0 0  
Month to date heating degree days 0 0  
Since 1 June heating degree days 0 0  
Since 1 July heating degree days 0 0  
Cooling Degree Days 18 17  
Month to date cooling degree days 583 536  
Year to date cooling degree days 2187 2107  
Since 1 June cooling degree days 1702 1569  
Growing Degree Days 32 (Base 50)    
Moisture  
Dew Point 72 °F    
Average Humidity 72    
Maximum Humidity 94    
Minimum Humidity 49    
Precipitation  
Precipitation 0.00 in 0.17 in 7.87 in (2014)
Month to date precipitation 3.71 4.70  
Year to date precipitation 39.00 38.06  
Snow  
Snow 0.00 in 0.00 in 0.00 in ()
Month to date snowfall 0.0 0.0  
Since 1 June snowfall 0.0 0.0  
Since 1 July snowfall 0.0 0.0  
Snow Depth 0.00 in    
Sea Level Pressure  
Sea Level Pressure 30.01 in    
Wind  
Wind Speed 2 mph (SSW)    
Max Wind Speed 9 mph    
Max Gust Speed 13 mph    
Visibility 8 miles    
Events      
T = Trace of Precipitation, MM = Missing Value Source: NWS Daily Summary

Daily Weather History Graph

Daily Weather History Graph

Search for Another Location

Airport:

Trip Planner

Search our weather history database for the weather conditions in past years. The results will help you decide how hot, cold, wet, or windy it might be!

Date:

Astronomy

Aug. 30, 2013 Rise Set
Actual Time 6:48 AM CDT 7:37 PM CDT
Civil Twilight 6:24 AM CDT 8:01 PM CDT
Nautical Twilight 5:55 AM CDT 8:30 PM CDT
Astronomical Twilight 5:25 AM CDT 9:00 PM CDT
Moon 1:40 AM CDT (8/30) 3:41 PM CDT (8/30)
Length of Visible Light 13h 37m
Length of Day
12h 48m
Waning Crescent, 29% of the Moon is Illuminated
Aug 30
Waning Crescent
Sep 5
New
Sep 12
First Quarter
Sep 19
Full
Sep 26
Last Quarter

Hourly Weather History & Observations

Time (CDT) Temp. Heat Index Dew Point Humidity Pressure Visibility Wind Dir Wind Speed Gust Speed Precip Events Conditions
12:53 AM 75.9 °F - 73.0 °F 91% 30.04 in 8.0 mi Calm Calm - N/A   Clear
1:53 AM 75.0 °F - 73.0 °F 94% 30.03 in 6.0 mi Calm Calm - N/A   Clear
2:53 AM 75.0 °F - 72.0 °F 90% 30.03 in 4.0 mi Calm Calm - N/A   Partly Cloudy
3:53 AM 73.9 °F - 72.0 °F 93% 30.02 in 4.0 mi Calm Calm - N/A   Clear
4:53 AM 73.9 °F - 72.0 °F 93% 30.01 in 3.0 mi Calm Calm - N/A   Clear
5:53 AM 73.0 °F - 71.1 °F 93% 30.02 in 5.0 mi Calm Calm - N/A   Clear
6:53 AM 73.9 °F - 71.1 °F 91% 30.04 in 4.0 mi Calm Calm - N/A   Partly Cloudy
7:53 AM 75.9 °F - 73.0 °F 91% 30.05 in 5.0 mi Calm Calm - N/A   Mostly Cloudy
8:53 AM 80.1 °F 85.1 °F 75.0 °F 85% 30.06 in 7.0 mi Calm Calm - N/A   Scattered Clouds
9:53 AM 84.9 °F 91.4 °F 73.0 °F 67% 30.06 in 10.0 mi Calm Calm - N/A   Clear
10:53 AM 87.1 °F 92.8 °F 71.1 °F 59% 30.06 in 10.0 mi WNW 3.5 mph - N/A   Partly Cloudy
11:53 AM 88.0 °F 93.8 °F 71.1 °F 57% 30.05 in 10.0 mi Calm Calm - N/A   Scattered Clouds
12:53 PM 89.1 °F 94.1 °F 70.0 °F 53% 30.03 in 10.0 mi Calm Calm - N/A   Clear
1:53 PM 90.0 °F 95.4 °F 70.0 °F 52% 30.01 in 10.0 mi Calm Calm - N/A   Clear
2:53 PM 91.0 °F 97.6 °F 71.1 °F 52% 29.99 in 10.0 mi South 4.6 mph - N/A   Scattered Clouds
3:53 PM 91.0 °F 96.6 °F 70.0 °F 50% 29.96 in 10.0 mi SSW 5.8 mph - N/A   Clear
4:53 PM 91.0 °F 96.6 °F 70.0 °F 50% 29.95 in 10.0 mi SW 6.9 mph - N/A   Clear
5:53 PM 90.0 °F 96.9 °F 72.0 °F 55% 29.94 in 10.0 mi SSW 5.8 mph - N/A   Clear
6:53 PM 86.0 °F 93.0 °F 73.0 °F 65% 29.94 in 10.0 mi South 6.9 mph - N/A   Clear
7:53 PM 82.9 °F 88.8 °F 73.0 °F 72% 29.95 in 10.0 mi South 3.5 mph - N/A   Clear
8:53 PM 81.0 °F 85.8 °F 73.0 °F 77% 29.96 in 10.0 mi South 3.5 mph - N/A   Clear
9:53 PM 80.1 °F 84.2 °F 73.0 °F 79% 29.96 in 10.0 mi South 3.5 mph - N/A   Clear
10:53 PM 79.0 °F - 73.0 °F 82% 29.96 in 9.0 mi South 3.5 mph - N/A   Clear
11:53 PM 79.0 °F - 73.0 °F 82% 29.96 in 9.0 mi Calm Calm - N/A   Clear